Regional Weather Roundup
Issued by NWS

Home | Current Version | Previous Version | Text Only | Print | Product List | Glossary On
Versions: 1 2 3 4 5 6 7 8 9 10 11 12 13 14 15 16 17 18 19 20 21 22 23 24 25 26 27 28 29 30 31 32 33 34 35 36 37 38 39 40 41 42 43 44 45 46 47 48 49 50
000
ASUS42 KTBW 280015
RWRFL
FLORIDA REGIONAL WEATHER ROUNDUP
NATIONAL WEATHER SERVICE TAMPA BAY RUSKIN FL
800 PM EDT FRI MAR 27 2015

NOTE: "FAIR" INDICATES FEW OR NO CLOUDS BELOW 12,000 FEET WITH NO
SIGNIFICANT WEATHER AND/OR OBSTRUCTIONS TO VISIBILITY.


FLZ001>010-012>015-112-114-115-280100-
PANHANDLE FLORIDA

CITY           SKY/WX    TMP DP  RH WIND       PRES   REMARKS
PENSACOLA      CLEAR     63  30  28 NW14G23   29.96R
PENSACOLA NAS  PTCLDY    64  31  28 NW9G16    29.96R
MILTON NAS     PTCLDY    63  30  29 NW12      29.97
CRESTVIEW      CLEAR     62  32  32 NW12      29.97R
DUKE FIELD     PTCLDY    62  32  33 NW9       29.94R
VALPARAISO     PTCLDY    64  31  29 NW12G23   29.94R
MARY ESTHER    CLEAR     64  25  22 NW13      29.94R
TRI COUNTY     FAIR      60  28  29 NW7G22    29.94R
PANAMA CITY    FAIR      61  37  41 W8        29.92R
TYNDALL AFB    CLEAR     63  37  38 NW13      29.92R
APALACHICOLA   CLEAR     63  43  48 CALM      29.91R

STATION/POSITION SKY/WX   TEMP    WIND        PRES    WAVE   SWELL
                          AIR SEA DIR/SP/G            HT/PER HT/PER
                          (F)     (DEG/KT/KT) (MB)    (FT/S) (FT/S)
30.1N   87.6W              66 67  310/ 19/ 23 1013.9R   2/ 3   2/ 8
29.2N   88.2W              65 71  300/ 19/ 23 1016.4R   4/ 6
28.8N   86.0W              65 75  320/ 19/ 23 1014.4R   6/ 7
PANAMA CITY BEAC           66 69  310/ 10/ 15 1012.3R
CAPE SAN BLAS    NOT AVBL
TOWER C                    63     310/ 14/ 15 1012.9R
28.5N   84.5W              64 70  320/ 21/ 25 1013.0R   7/ 7

$$
FLZ011-016>038-118-127-128-134-139-239-280100-
NORTH FLORIDA

CITY           SKY/WX    TMP DP  RH WIND       PRES   REMARKS
MARIANNA       CLEAR     61  32  33 NW16G23   29.91R
TALLAHASSEE    PTCLDY    60  43  53 W5        29.88S
PERRY          MOCLDY    57  46  65 W6        29.90R
CROSS CITY       N/A     61  45  55 NW9       29.88R
LAKE CITY      FAIR      57  46  67 NW14G20   29.87R
GAINESVILLE    MOCLDY    61  55  81 NW13      29.85R
MAYPORT NAS    CLOUDY    62  55  77 W10       29.79R
JACKSONVILLE   CLOUDY    60  51  72 W14G22    29.82R
JAX NAS        CLOUDY    65  56  72 W10       29.82R
JAX CRAIG      CLOUDY    62  56  80 NW13      29.80R
JAX CECIL      CLEAR     61  55  82 NW12      29.82R
FERNANDINA BEA FAIR      64  55  72 W10G16    29.79R
ST AUGUSTINE   CLOUDY    64  61  88 W9G20     29.82R

STATION/POSITION SKY/WX   TEMP    WIND        PRES    WAVE   SWELL
                          AIR SEA DIR/SP/G            HT/PER HT/PER
                          (F)     (DEG/KT/KT) (MB)    (FT/S) (FT/S)
SHELL POINT                62     330/  9/ 15   N/A
KEATON BEACH               59     340/  7/  9 1012.5R
CEDAR KEY                  64     320/ 12/ 18 1012.4R
FERNANDINA                 63 65  270/  9/ 11 1007.4R
30.7N   81.3W                 62                N/A     2/ 8
MAYPORT                    65 65  300/ 12/ 19 1007.9R
31.4N   80.9W              61 61  280/ 17/ 21 1007.4R   3/ 4   2/ 8
ST AUGUSTINE               65 61  290/  8/ 12 1009.8R

$$
FLZ040-043>046-052-053-057-058-063-144-280100-
INTERIOR CENTRAL FLORIDA

CITY           SKY/WX    TMP DP  RH WIND       PRES   REMARKS
OCALA          CLOUDY    64  57  77 W10G17    29.85R
THE VILLAGES     N/A     66  66 100 W10G17    29.75R
LEESBURG       CLOUDY    66  64  93 W10       29.83S
SANFORD        CLOUDY    67  62  84 W13       29.82R
ORLANDO EXEC   CLOUDY    67  63  87 W10       29.84R
ORLANDO INTL   CLOUDY    67  64  90 SW10      29.84R
KISSIMMEE      CLOUDY    66  66 100 W7        29.85R
WINTER HAVEN   CLOUDY    68  65  90 W9        29.87R
BARTOW         CLOUDY    66  66 100 W9        29.87R
OKEECHOBEE     LGT RAIN  64  64 100 S12       29.87F

$$
FLZ041-047-054-059-064-141-147-280100-
EAST CENTRAL FLORIDA

CITY           SKY/WX    TMP DP  RH WIND       PRES   REMARKS
DAYTONA BEACH  CLOUDY    66  64  93 SW14      29.81R
DELAND           N/A    N/A N/A N/A SW8       29.82R
JFK SPACE CTR  CLOUDY    67  62  85 W12       29.81R
TITUSVILLE     CLOUDY    64  64 100 SW12      29.83R
CAPE CANAVERAL CLOUDY    68  64  88 W10       29.82R
PATRICK AFB    CLOUDY    69  67  93 SW15      29.82
MELBOURNE      CLOUDY    68  65  90 SW15      29.82R
VERO BEACH     CLOUDY    68  62  81 SW12      29.85F
FT PIERCE      LGT RAIN  68  65  90 SW10      29.86S
STUART         LGT RAIN  66  63  88 W10       29.90S

STATION/POSITION SKY/WX   TEMP    WIND        PRES    WAVE   SWELL
                          AIR SEA DIR/SP/G            HT/PER HT/PER
                          (F)     (DEG/KT/KT) (MB)    (FT/S) (FT/S)
28.5N   80.2W              68 71  240/ 16/ 19 1008.9F
28.9N   78.5W              66 76  250/ 14/ 17 1009.4R
TRIDENT PIER               68 74  220/ 11/ 14 1009.5F
28.4N   80.5W                 72                N/A     2/ 8
27.5N   80.2W                 76                N/A     3/ 3

$$
FLZ050-056-061-142-242-148-248-149-249-151-251-155-255-
160-260-280100-
WEST CENTRAL FLORIDA

CITY           SKY/WX    TMP DP  RH WIND       PRES   REMARKS
CRYSTAL RIVER  FAIR      64  55  72 W14G26    29.87R
INVERNESS      MOCLDY    64  37  36 NW6       29.87R
BROOKSVILLE    CLOUDY    66  62  87 W13       29.88R
ZEPHYRHILLS    CLOUDY    64  64 100 W14G21    29.88R
CLEARWATER     CLOUDY    66  62  87 W13       29.89R
TAMPA INTL     CLOUDY    67  61  81 W13G21    29.89R
TAMPA EXEC     CLOUDY    68  63  83 NW7       29.88R
PLANT CITY     CLOUDY    68  68 100 W7        29.90R
MACDILL AFB    CLOUDY    67  65  96 W13G22    29.89R
PETER O KNIGHT CLOUDY    70  64  83 NW9G17    29.89R
ST PETERSBURG  CLOUDY    68  63  84 NW10G18   29.88R
SARASOTA       CLOUDY    68  64  87 NW14G23   29.89R
VENICE         CLOUDY    70  68  94 NW21      29.91R

STATION/POSITION SKY/WX   TEMP    WIND        PRES    WAVE   SWELL
                          AIR SEA DIR/SP/G            HT/PER HT/PER
                          (F)     (DEG/KT/KT) (MB)    (FT/S) (FT/S)
CEDAR KEY                  64     320/ 12/ 18 1012.4R
28.5N   84.5W              64 70  320/ 21/ 25 1013.0R   7/ 7
27.3N   84.2W                 73                N/A     7/ 6
CLEARWATER BEACH           68 75  300/ 22/ 26 1011.4R
MIDDLE TAMPA BAY           69     330/ 22/ 25 1011.2R
VENICE                     71 76  310/ 21/ 25 1012.0R

$$
FLZ066-069-070-075>078-162-262-165-265-280100-
SOUTHWEST FLORIDA AND KEYS

CITY           SKY/WX    TMP DP  RH WIND       PRES   REMARKS
PUNTA GORDA    LGT RAIN  69  67  93 SW14G20   29.91R
FT MYERS       LGT RAIN  68  66  93 SW8       29.91R
SOUTHWEST INTL LGT RAIN  68  65  90 SW14      29.92R
NAPLES         LGT RAIN  69  50  51 W14       29.93S
MARCO ISLAND   CLOUDY    70  64  83 W5        29.93S
IMMOKALEE      MOCLDY   N/A N/A N/A SW8       29.93S
MARATHON       CLOUDY    75  71  87 N22G32    29.91R THUNDER
KEY WEST NAS   RAIN      74  72  93 N13G26    29.94R FOG
KEY WEST INTL  HVY RAIN  75  74  96 CALM      29.94R FOG

STATION/POSITION SKY/WX   TEMP    WIND        PRES    WAVE   SWELL
                          AIR SEA DIR/SP/G            HT/PER HT/PER
                          (F)     (DEG/KT/KT) (MB)    (FT/S) (FT/S)
VENICE                     71 76  310/ 21/ 25 1012.0R
NAPLES                     70 79  300/ 12/ 14 1013.6R
26.0N   85.6W              71 75  330/ 23/ 27 1013.9R   7/ 6
DRY TORTUGAS               74     290/ 13/ 13 1012.3R
NW FL BAY                  76     340/ 25/ 30 1012.8
SAND KEY                   76     220/ 23/ 29 1013.0R
SOMBRERO KEY               74     330/ 23/ 25 1013.4R
LONG KEY                   72 83  350/ 30/ 35 1013.9R
MOLASSES REEF              73 78  330/ 30/ 35 1012.2R

$$
FLZ067-068-071>074-168-172>174-280100-
SOUTHEAST FLORIDA

CITY           SKY/WX    TMP DP  RH WIND       PRES   REMARKS
W PALM BEACH   LGT RAIN  67  65  93 W13       29.90R
FT LAUDER-EXEC MOCLDY    68  66  93 W16G22    29.92R
FT LAUDERDALE  CLOUDY    69  65  86 NW13G23   29.91R
POMPANO BEACH  MOCLDY    68  64  87 W18G25    29.91R
PEMBROKE PINES CLOUDY    69  64  84 NW16      29.94R
OPA LOCKA      LGT RAIN  71  64  78 NW23      29.93R
MIAMI          LGT RAIN  70  65  84 NW14G23   29.93R
WEST KENDALL   LGT RAIN  70  66  87 NW23G29   29.92R
HOMESTEAD      TSTM      72  64  78 W20G28    29.92R

STATION/POSITION SKY/WX   TEMP    WIND        PRES    WAVE   SWELL
                          AIR SEA DIR/SP/G            HT/PER HT/PER
                          (F)     (DEG/KT/KT) (MB)    (FT/S) (FT/S)
PORT EVERGLADES            71     290/ 21/ 31 1012.1R
VIRGINIA KEY               72 81  300/ 13/ 20 1012.2R
LAKE WORTH                 68 77  260/ 15/ 23 1012.1R
SETTLEMENT POINT           74     290/ 25/ 27 1013.1R

$$




USA.gov is the U.S. government's official web portal to all federal, state and local government web resources and services.